Cut Bank, MT

3:02 PM MDT on October 21, 2019 (GMT -0600)
Cut Bank Municipal

Weather History for KCTB - August, 2019

Change the Weather History Date:

Tuesday, August 20, 2019

  Actual Average Record
Temperature  
Mean Temperature 63 °F 63 °F  
Max Temperature 80 °F 78 °F 92 °F (1967)
Min Temperature 46 °F 48 °F 35 °F (1938)
Degree Days  
Heating Degree Days 2 4  
Month to date heating degree days 45 53  
Since 1 June heating degree days 360 372  
Since 1 July heating degree days 138 139  
Cooling Degree Days 0 2  
Month to date cooling degree days 45 53  
Year to date cooling degree days 98 142  
Since 1 June cooling degree days 98 140  
Growing Degree Days 13 (Base 50)    
Moisture  
Dew Point 46 °F    
Average Humidity 56    
Maximum Humidity 83    
Minimum Humidity 27    
Precipitation  
Precipitation 0.00 in 0.04 in 0.68 in (2014)
Month to date precipitation 1.19 0.75  
Year to date precipitation 8.60 8.22  
Snow  
Snow - - - ()
Snow Depth 0.00 in    
Sea Level Pressure  
Sea Level Pressure 30.08 in    
Wind  
Wind Speed 4 mph ()    
Max Wind Speed 14 mph    
Max Gust Speed 19 mph    
Visibility 10.0 miles    
Events      
T = Trace of Precipitation, MM = Missing Value Source: Averaged Metar Reports

Daily Weather History Graph

Daily Weather History Graph

Search for Another Location

Airport or City:

Astronomy

Aug. 20, 2019 Rise Set
Actual Time 6:29 AM MDT 8:35 PM MDT
Civil Twilight 5:55 AM MDT 9:09 PM MDT
Nautical Twilight 5:13 AM MDT 9:51 PM MDT
Astronomical Twilight 4:25 AM MDT 10:38 PM MDT
Moon 11:01 PM MDT (8/20) 11:32 AM MDT (8/20)
Length of Visible Light 15h 13m
Length of Day
14h 05m
Waning Gibbous, 77% of the Moon is Illuminated
Aug 20
Waning Gibbous
Aug 23
Last Quarter
Aug 30
New
Sep 5
First Quarter
Sep 13
Full

Hourly Weather History & Observations

Time (MDT) Temp. Dew Point Humidity Pressure Visibility Wind Dir Wind Speed Gust Speed Precip Events Conditions
12:56 AM 52.0 °F 45.0 °F 77% 30.06 in 10.0 mi WNW 5.8 mph - N/A   Clear
1:56 AM 50.0 °F 44.1 °F 80% 30.07 in 10.0 mi Calm Calm - N/A   Clear
2:56 AM 50.0 °F 44.1 °F 80% 30.08 in 10.0 mi Calm Calm - N/A   Clear
3:56 AM 46.9 °F 42.1 °F 83% 30.09 in 10.0 mi NNW 3.5 mph - N/A   Clear
4:56 AM 48.0 °F 43.0 °F 83% 30.09 in 10.0 mi Calm Calm - N/A   Clear
5:56 AM 51.1 °F 44.1 °F 77% 30.09 in 10.0 mi SE 3.5 mph - N/A   Clear
6:56 AM 51.1 °F 44.1 °F 77% 30.11 in 10.0 mi Calm Calm - N/A   Clear
7:56 AM 53.1 °F 46.0 °F 77% 30.12 in 10.0 mi SE 4.6 mph - N/A   Clear
8:56 AM 55.9 °F 46.0 °F 69% 30.14 in 10.0 mi SE 4.6 mph - N/A   Clear
9:56 AM 61.0 °F 46.0 °F 58% 30.13 in 10.0 mi SE 9.2 mph - N/A   Clear
10:56 AM 64.9 °F 46.9 °F 52% 30.12 in 10.0 mi SE 10.4 mph - N/A   Clear
11:56 AM 68.0 °F 48.0 °F 49% 30.11 in 10.0 mi ESE 8.1 mph - N/A   Clear
12:56 PM 70.0 °F 46.9 °F 44% 30.11 in 10.0 mi SSE 8.1 mph - N/A   Clear
1:56 PM 73.9 °F 48.0 °F 40% 30.08 in 10.0 mi SE 10.4 mph - N/A   Clear
2:56 PM 77.0 °F 46.9 °F 34% 30.06 in 10.0 mi SE 8.1 mph - N/A   Clear
3:56 PM 78.1 °F 46.9 °F 33% 30.05 in 10.0 mi East 9.2 mph - N/A   Clear
4:56 PM 79.0 °F 46.0 °F 31% 30.04 in 10.0 mi SSE 9.2 mph - N/A   Clear
5:56 PM 79.0 °F 44.1 °F 29% 30.03 in 10.0 mi SSE 6.9 mph - N/A   Clear
6:56 PM 79.0 °F 42.1 °F 27% 30.02 in 10.0 mi SSE 4.6 mph - N/A   Clear
7:56 PM 75.0 °F 46.0 °F 36% 30.03 in 10.0 mi SE 5.8 mph - N/A   Clear
8:56 PM 71.1 °F 46.0 °F 41% 30.04 in 10.0 mi SE 4.6 mph - N/A   Clear
9:56 PM 66.0 °F 46.9 °F 50% 30.05 in 10.0 mi ESE 8.1 mph - N/A   Clear
10:56 PM 66.9 °F 46.9 °F 49% 30.05 in 10.0 mi East 10.4 mph - N/A   Clear
11:56 PM 62.1 °F 46.9 °F 58% 30.06 in 10.0 mi East 8.1 mph - N/A   Clear